Home   Weather   Königs Wusterhausen   Past weeks

Flag for Germany Past Weather in Königs Wusterhausen, Brandenburg, Germany — Yesterday and Last 2 Weeks

Now
57 °F

Light rain. Broken clouds.


Feels Like: 57 °F
Forecast: 53 / 65 °F
Wind: 2 mph from North

Location: Berlin-Schoenefeld

Current Time: Oct 1, 2016 at 7:14:07 PM

Latest Report: Oct 1, 2016 at 6:20 PM


Visibility: 4 mi

Pressure: 29.77 "Hg

Humidity: 94%

Dew Point: 55 °F

Location of Königs WusterhausenLocation

Past Weather in Königs Wusterhausen — Graph

°F

Königs Wusterhausen Temperature Yesterday

Maximum temperature yesterday: 68 °F (at 2:20 PM)
Minimum temperature yesterday: 52 °F (at 10:20 PM)
Average temperature yesterday: 60 °F

High & Low Weather Summary for the Past Weeks

 TemperatureHumidityPressure
High81 °F (Sep 16, 5:20 PM)100% (Sep 24, 4:50 AM)30.30 "Hg (Sep 24, 4:50 AM)
Low43 °F (Sep 22, 3:50 AM)30% (Sep 22, 3:20 PM)29.77 "Hg (Oct 1, 5:20 PM)
Average59 °F67%30.08 "Hg
* Reported Sep 16 5:20 PM — Oct 1 5:50 PM, Königs Wusterhausen, Weather by CustomWeather, © 2016

Note: Actual official high and low records may vary slightly from our data, if they occured in-between our weather recording intervals... More about our weather records

Advertising

Königs Wusterhausen Weather History for the Previous 24 Hours

Scroll right to see more
 ConditionsComfort  
Time TempWeatherWind HumidityBarometerVisibility
5:50 PM
Sat, Oct 1
57 °FLight rain. Broken clouds.3 mph94%29.77 "Hg5 mi
5:20 PM57 °FLight rain. Broken clouds.2 mph94%29.77 "HgN/A
4:50 PM57 °FBroken clouds.3 mph94%29.80 "HgN/A
4:20 PM55 °FScattered clouds.5 mph94%29.80 "HgN/A
3:50 PM57 °FBroken clouds.5 mph88%29.80 "HgN/A
3:20 PM55 °FPartly sunny.6 mph94%29.80 "HgN/A
2:50 PM55 °FLight rain. Partly sunny.9 mph94%29.80 "HgN/A
2:20 PM55 °FDrizzle. Broken clouds.7 mph94%29.83 "Hg4 mi
1:50 PM55 °FLight rain. Partly sunny.7 mph94%29.86 "HgN/A
1:20 PM55 °FLight rain. Broken clouds.8 mph94%29.86 "HgN/A
12:50 PM55 °FLight rain. Broken clouds.7 mph94%29.89 "HgN/A
12:20 PM55 °FLight rain. Broken clouds.5 mph94%29.89 "HgN/A
11:50 AM54 °FLight rain. Broken clouds.6 mph94%29.89 "HgN/A
11:20 AM54 °FLight rain. Partly sunny.6 mph94%29.89 "HgN/A
10:50 AM54 °FLight rain. Partly sunny.7 mph94%29.89 "HgN/A
10:20 AM54 °FLight rain. Broken clouds.6 mph94%29.92 "HgN/A
9:50 AM54 °FLight rain. Broken clouds.5 mph94%29.92 "HgN/A
9:20 AM52 °FSunny.5 mph94%29.92 "Hg10 mi
8:50 AM50 °FSunny.5 mph100%29.92 "Hg10 mi
8:20 AM50 °FBroken clouds.5 mph94%29.92 "Hg6 mi
7:50 AM48 °FPartly sunny.3 mph100%29.92 "Hg5 mi
7:20 AM48 °FBroken clouds.2 mph100%29.92 "Hg5 mi
6:50 AM48 °FClear.1 mph94%29.92 "Hg6 mi
6:20 AM48 °FClear.3 mph100%29.92 "Hg5 mi
5:50 AM48 °FClear.2 mph94%29.92 "Hg5 mi
5:20 AM46 °FClear.3 mph93%29.92 "Hg4 mi
4:50 AM46 °FFog.2 mph93%29.92 "Hg1 mi
4:20 AM45 °FFog.2 mph100%29.95 "Hg1 mi
3:50 AM45 °FFog.No wind100%29.92 "Hg1 mi
3:20 AM46 °FFog.No wind93%29.95 "Hg2 mi
2:50 AM46 °FFog.1 mph100%29.95 "Hg3 mi
2:20 AM48 °FFog.2 mph94%29.95 "Hg3 mi
1:50 AM48 °FFog.5 mph100%29.98 "HgN/A
1:20 AM48 °FFog.5 mph94%29.98 "HgN/A
12:50 AM48 °FFog.2 mph94%29.98 "HgN/A
12:20 AM52 °FFog.2 mph94%29.98 "HgN/A
11:50 PM
Fri, Sep 30
52 °FFog.1 mph94%29.98 "HgN/A
11:20 PM52 °FClear.1 mph94%29.98 "Hg10 mi
10:50 PM52 °FClear.2 mph94%29.95 "Hg10 mi
10:20 PM52 °FClear.No wind88%29.95 "Hg10 mi
9:50 PM54 °FClear.3 mph88%29.95 "Hg10 mi
9:20 PM55 °FClear.6 mph88%29.95 "Hg10 mi
8:50 PM55 °FClear.7 mph88%29.95 "Hg10 mi
8:20 PM55 °FPassing clouds.6 mph82%29.95 "HgN/A
7:50 PM57 °FClear.6 mph77%29.95 "Hg10 mi
7:20 PM57 °FPartly cloudy.8 mph77%29.92 "HgN/A
Weather by CustomWeather, © 2016

See weather overviewHow to use our weather pages